Location: Devore Heights
(34.2372°N, 117.4156°W)
Time: 03:10:58
(UTC+00:00)

SR - Pass Details

Date: 19 September 2024
Orbit: 578 x 855 km, 66.7° (Epoch: 02 October)

Event Time Altitude Azimuth Distance (km) Brightness Sun altitude
Rises 03:39:44 0° 357° (N) 2,970 ? -22.9°
Enters shadow 03:43:23 - 28° (NNE) 2,194 ? -23.6°
Reaches altitude 10° 03:44:02 10° 36° (NE) 2,132 - -23.7°
Maximum altitude 03:45:12 11° 50° (NE) 2,101 - -24.0°
Drops below altitude 10° 03:46:23 10° 64° (ENE) 2,175 - -24.2°
Sets 03:50:57 0° 101° (E) 3,179 - -25.1°
